TimeIST,TemperatureF,Dew PointF,Humidity,Sea Level PressureIn,VisibilityMPH,Wind Direction,Wind SpeedMPH,Gust SpeedMPH,PrecipitationIn,Events,Conditions,WindDirDegrees,DateUTC
12:10 AM,73.4,73.4,100,29.83,1.9,Calm,Calm,-,N/A,,Haze,0,2012-11-03 18:40:00
1:10 AM,75.2,73.4,94,29.83,1.9,Calm,Calm,-,N/A,,Haze,0,2012-11-03 19:40:00
2:10 AM,75.2,73.4,94,29.80,1.9,Calm,Calm,-,N/A,,Haze,0,2012-11-03 20:40:00
2:30 AM,72,71,97,29.77,1,NNE,3.5,,,,Haze,20,2012-11-03 21:00:00
3:10 AM,73.4,71.6,94,29.80,1.9,North,3.5,-,N/A,,Haze,360,2012-11-03 21:40:00
4:10 AM,71.6,69.8,94,29.80,1.9,North,3.5,-,N/A,,Haze,10,2012-11-03 22:40:00
5:10 AM,71.6,69.8,94,29.80,1.9,NNE,2.3,-,N/A,,Haze,20,2012-11-03 23:40:00
5:30 AM,69,68,97,29.79,1,NNE,3.5,,,,Haze,20,2012-11-04 00:00:00
6:10 AM,71.6,68.0,88,29.83,1.2,North,3.5,-,N/A,,Haze,360,2012-11-04 00:40:00
8:10 AM,73.4,68.0,83,29.89,3.1,NE,3.5,-,N/A,,Haze,50,2012-11-04 02:40:00
8:30 AM,72,70,90,29.86,2,ENE,4.6,,,,Haze,70,2012-11-04 03:00:00
9:10 AM,75.2,69.8,83,29.89,3.7,NNE,5.8,-,N/A,,Scattered Clouds,20,2012-11-04 03:40:00
10:10 AM,78.8,71.6,78,29.89,3.7,NE,3.5,-,N/A,,Scattered Clouds,40,2012-11-04 04:40:00
11:10 AM,84.2,73.4,70,29.89,3.7,North,5.8,-,N/A,,Scattered Clouds,10,2012-11-04 05:40:00
11:30 AM,81,70,62,29.82,2,North,4.6,,,,Partly Cloudy,0,2012-11-04 06:00:00
12:10 PM,84.2,73.4,70,29.86,3.7,NNE,17.3,-,N/A,,Scattered Clouds,30,2012-11-04 06:40:00
1:10 PM,86.0,73.4,66,29.83,3.7,NE,5.8,-,N/A,,Scattered Clouds,40,2012-11-04 07:40:00
2:10 PM,87.8,71.6,58,29.80,3.7,North,3.5,-,N/A,,Scattered Clouds,10,2012-11-04 08:40:00
2:30 PM,86,73,56,29.71,2,NW,6.9,,,,Partly Cloudy,320,2012-11-04 09:00:00
3:10 PM,89.6,71.6,55,29.80,3.7,NE,3.5,-,N/A,,Scattered Clouds,40,2012-11-04 09:40:00
4:10 PM,87.8,71.6,58,29.80,3.7,NW,3.5,-,N/A,,Partly Cloudy,320,2012-11-04 10:40:00
5:10 PM,86.0,71.6,62,29.80,3.7,North,4.6,-,N/A,,Partly Cloudy,350,2012-11-04 11:40:00
5:30 PM,81,70,61,29.73,2,Calm,Calm,,,,Haze,,2012-11-04 12:00:00
6:10 PM,82.4,69.8,66,29.77,3.1,Calm,Calm,-,N/A,,Haze,0,2012-11-04 12:40:00
7:10 PM,78.8,71.6,78,29.80,3.1,Calm,Calm,-,N/A,,Haze,0,2012-11-04 13:40:00
8:10 PM,77.0,71.6,83,29.83,3.1,Calm,Calm,-,N/A,,Haze,0,2012-11-04 14:40:00
8:30 PM,75,71,82,29.81,2,Calm,Calm,,,,Haze,,2012-11-04 15:00:00
9:10 PM,77.0,69.8,78,29.83,3.1,NE,2.3,-,N/A,,Haze,50,2012-11-04 15:40:00
10:00 PM,69.8,68.0,94,29.83,-9999.0,North,-9999.0,-,N/A,,Haze,0,2012-11-04 16:30:00
10:10 PM,69.8,68.0,94,29.83,-9999.0,North,-9999.0,-,N/A,,Haze,0,2012-11-04 16:40:00
11:10 PM,75.2,68.0,78,29.83,3.1,Calm,Calm,-,N/A,,Haze,0,2012-11-04 17:40:00
11:30 PM,72,69,85,29.81,2,Calm,Calm,,,,Haze,,2012-11-04 18:00:00